"Sample Date","Sample Time","Sample Value","Units","Flow Rate","Laser Status","Micron Size 0","Counts/Channel 0","Micron Size 1","Counts/Channel 1","Micron Size 2","Counts/Channel 2","Micron Size 3","Counts/Channel 3","Micron Size 4","Counts/Channel 4","Micron Size 5","Counts/Channel 5","Micron Size 6","Counts/Channel 6","Micron Size 7","Counts/Channel 7","Micron Size 8","Counts/Channel 8","Micron Size 9","Counts/Channel 9","Micron Size 10","Counts/Channel 10","Micron Size 11","Counts/Channel 11","Micron Size 12","Counts/Channel 12","Micron Size 13","Counts/Channel 13","Micron Size 14","Counts/Channel 14","Micron Size 15","Counts/Channel 15","Micron Size 16","Counts/Channel 16","Micron Size 17","Counts/Channel 17","Micron Size 18","Counts/Channel 18","Micron Size 19","Counts/Channel 19","Micron Size 20","Counts/Channel 20","Micron Size 21","Counts/Channel 21","Micron Size 22","Counts/Channel 22","Micron Size 23","Counts/Channel 23","Micron Size 24","Counts/Channel 24","Micron Size 25","Counts/Channel 25","Micron Size 26","Counts/Channel 26","Micron Size 27","Counts/Channel 27","Micron Size 28","Counts/Channel 28","Micron Size 29","Counts/Channel 29","Micron Size 30","Counts/Channel 30","Micron Size 31","Counts/Channel 31"
"05/02/07","14:00:58",439508.000,"cf",1.000,1,0.100,368554.000,0.200,64540.000,0.300,5326.000,0.500,835.000,1.000,253.000,5.000,0
"05/02/07","14:01:58",426056.000,"cf",1.000,1,0.100,357578.000,0.200,62213.000,0.300,5212.000,0.500,837.000,1.000,214.000,5.000,2.000
"05/02/07","14:02:58",405404.000,"cf",1.000,1,0.100,340439.000,0.200,58684.000,0.300,5082.000,0.500,951.000,1.000,248.000,5.000,0
"05/02/07","14:03:58",436907.000,"cf",1.000,1,0.100,368592.000,0.200,61351.000,0.300,5671.000,0.500,1029.000,1.000,264.000,5.000,0
"05/02/07","14:04:58",448276.000,"cf",1.000,1,0.100,378630.000,0.200,62090.000,0.300,6131.000,0.500,1131.000,1.000,294.000,5.000,0
"05/02/07","14:05:58",445235.000,"cf",1.000,1,0.100,375939.000,0.200,61810.000,0.300,6010.000,0.500,1152.000,1.000,324.000,5.000,0
"05/02/07","14:06:58",392145.000,"cf",1.000,1,0.100,331094.000,0.200,54387.000,0.300,5414.000,0.500,958.000,1.000,292.000,5.000,0
"05/02/07","14:07:58",424639.000,"cf",1.000,1,0.100,358018.000,0.200,59855.000,0.300,5427.000,0.500,1048.000,1.000,291.000,5.000,0
"05/02/07","14:08:58",464425.000,"cf",1.000,1,0.100,392281.000,0.200,65418.000,0.300,5541.000,0.500,924.000,1.000,261.000,5.000,0
"05/02/07","14:09:58",489944.000,"cf",1.000,1,0.100,412053.000,0.200,70801.000,0.300,5811.000,0.500,976.000,1.000,303.000,5.000,0
"05/02/07","14:10:58",429986.000,"cf",1.000,1,0.100,360012.000,0.200,62838.000,0.300,5786.000,0.500,1061.000,1.000,289.000,5.000,0
"05/02/07","14:11:58",456103.000,"cf",1.000,1,0.100,382490.000,0.200,65812.000,0.300,6251.000,0.500,1206.000,1.000,344.000,5.000,0
"05/02/07","14:12:58",471027.000,"cf",1.000,1,0.100,395458.000,0.200,67643.000,0.300,6365.000,0.500,1214.000,1.000,347.000,5.000,0
"05/02/07","14:13:58",385492.000,"cf",1.000,1,0.100,322254.000,0.200,56485.000,0.300,5463.000,0.500,1008.000,1.000,282.000,5.000,0
"05/02/07","14:14:58",397168.000,"cf",1.000,1,0.100,330988.000,0.200,58947.000,0.300,5776.000,0.500,1144.000,1.000,313.000,5.000,0
"05/02/07","14:15:58",363485.000,"cf",1.000,1,0.100,301465.000,0.200,54606.000,0.300,5938.000,0.500,1143.000,1.000,333.000,5.000,0
"05/02/07","14:16:58",343179.000,"cf",1.000,1,0.100,284370.000,0.200,51761.000,0.300,5713.000,0.500,1080.000,1.000,254.000,5.000,1.000
"05/02/07","14:17:58",418504.000,"cf",1.000,1,0.100,349356.000,0.200,61956.000,0.300,5924.000,0.500,985.000,1.000,283.000,5.000,0
"05/02/07","14:18:58",440827.000,"cf",1.000,1,0.100,368345.000,0.200,64995.000,0.300,6098.000,0.500,1115.000,1.000,274.000,5.000,0
"05/02/07","14:19:58",442422.000,"cf",1.000,1,0.100,369784.000,0.200,65709.000,0.300,5710.000,0.500,960.000,1.000,258.000,5.000,1.000
"05/02/07","14:20:58",429295.000,"cf",1.000,1,0.100,358173.000,0.200,64255.000,0.300,5683.000,0.500,940.000,1.000,244.000,5.000,0
"05/02/07","14:21:58",474161.000,"cf",1.000,1,0.100,395578.000,0.200,71234.000,0.300,6074.000,0.500,997.000,1.000,278.000,5.000,0
"05/02/07","14:22:58",408588.000,"cf",1.000,1,0.100,340050.000,0.200,61937.000,0.300,5353.000,0.500,947.000,1.000,301.000,5.000,0
"05/02/07","14:23:58",398543.000,"cf",0.999,1,0.100,331517.000,0.200,60415.000,0.300,5188.000,0.500,1101.000,1.000,322.000,5.000,0
"05/02/07","14:24:58",328286.000,"cf",1.000,1,0.100,272603.000,0.200,50072.000,0.300,4567.000,0.500,833.000,1.000,211.000,5.000,0
"05/02/07","14:25:58",301172.000,"cf",1.000,1,0.100,250095.000,0.200,46109.000,0.300,4189.000,0.500,608.000,1.000,171.000,5.000,0
"05/02/07","14:26:58",288202.000,"cf",1.000,1,0.100,238929.000,0.200,44511.000,0.300,4065.000,0.500,584.000,1.000,113.000,5.000,0
"05/02/07","14:27:58",276630.000,"cf",1.000,1,0.100,228597.000,0.200,43389.000,0.300,3996.000,0.500,534.000,1.000,114.000,5.000,0
"05/02/07","14:28:58",264195.000,"cf",1.000,1,0.100,218416.000,0.200,41316.000,0.300,3840.000,0.500,524.000,1.000,99.000,5.000,0
"05/02/07","14:29:58",251635.000,"cf",0.999,1,0.100,207524.000,0.200,39878.000,0.300,3686.000,0.500,457.000,1.000,90.000,5.000,0
"05/02/07","14:30:58",238924.000,"cf",1.000,1,0.100,197175.000,0.200,37694.000,0.300,3494.000,0.500,452.000,1.000,109.000,5.000,0
"05/02/07","14:31:58",238848.000,"cf",1.000,1,0.100,196943.000,0.200,37840.000,0.300,3531.000,0.500,459.000,1.000,75.000,5.000,0
"05/02/07","14:32:58",245809.000,"cf",1.000,1,0.100,203137.000,0.200,38415.000,0.300,3679.000,0.500,479.000,1.000,99.000,5.000,0
"05/02/07","14:33:58",240413.000,"cf",0.999,1,0.100,198724.000,0.200,37640.000,0.300,3441.000,0.500,502.000,1.000,103.000,5.000,3.000
"05/02/07","14:34:58",246219.000,"cf",1.000,1,0.100,204118.000,0.200,38025.000,0.300,3523.000,0.500,465.000,1.000,85.000,5.000,3.000
"05/02/07","14:35:58",258521.000,"cf",1.000,1,0.100,214786.000,0.200,39546.000,0.300,3627.000,0.500,478.000,1.000,84.000,5.000,0
"05/02/07","14:36:58",318801.000,"cf",1.000,1,0.100,265845.000,0.200,47847.000,0.300,4140.000,0.500,759.000,1.000,210.000,5.000,0
"05/02/07","14:37:58",314535.000,"cf",1.000,1,0.100,262174.000,0.200,47487.000,0.300,4055.000,0.500,667.000,1.000,151.000,5.000,1.000
"05/02/07","14:38:58",308499.000,"cf",1.000,1,0.100,256436.000,0.200,47236.000,0.300,3985.000,0.500,644.000,1.000,198.000,5.000,0
"05/02/07","14:39:58",324304.000,"cf",1.000,1,0.100,269710.000,0.200,49549.000,0.300,4172.000,0.500,683.000,1.000,189.000,5.000,1.000
"05/02/07","14:40:58",351039.000,"cf",1.000,1,0.100,293151.000,0.200,52570.000,0.300,4434.000,0.500,698.000,1.000,185.000,5.000,1.000
"05/02/07","14:41:58",421232.000,"cf",1.000,1,0.100,353330.000,0.200,61819.000,0.300,4912.000,0.500,916.000,1.000,254.000,5.000,1.000
"05/02/07","14:42:58",436376.000,"cf",1.000,1,0.100,365083.000,0.200,64925.000,0.300,5253.000,0.500,853.000,1.000,262.000,5.000,0
"05/02/07","14:43:58",496753.000,"cf",1.000,1,0.100,414154.000,0.200,75574.000,0.300,5822.000,0.500,944.000,1.000,259.000,5.000,0
"05/02/07","14:44:58",420224.000,"cf",1.000,1,0.100,350074.000,0.200,63940.000,0.300,5133.000,0.500,821.000,1.000,256.000,5.000,0
"05/02/07","14:45:58",452559.000,"cf",1.000,1,0.100,378382.000,0.200,67833.000,0.300,5184.000,0.500,894.000,1.000,266.000,5.000,0
"05/02/07","14:46:58",395988.000,"cf",1.000,1,0.100,330528.000,0.200,59422.000,0.300,4904.000,0.500,860.000,1.000,274.000,5.000,0
"05/02/07","14:47:58",361495.000,"cf",1.000,1,0.100,301714.000,0.200,54308.000,0.300,4389.000,0.500,836.000,1.000,247.000,5.000,1.000
"05/02/07","14:48:58",331775.000,"cf",1.000,1,0.100,277143.000,0.200,49524.000,0.300,4059.000,0.500,812.000,1.000,237.000,5.000,0
"05/02/07","14:49:58",444282.000,"cf",1.000,1,0.100,369981.000,0.200,67380.000,0.300,5716.000,0.500,956.000,1.000,249.000,5.000,0
"05/02/07","14:50:58",543221.000,"cf",1.000,1,0.100,454413.000,0.200,81323.000,0.300,6176.000,0.500,995.000,1.000,314.000,5.000,0
"05/02/07","14:51:58",448410.000,"cf",1.000,1,0.100,375113.000,0.200,66826.000,0.300,5390.000,0.500,844.000,1.000,237.000,5.000,0
"05/02/07","14:52:58",410961.000,"cf",1.000,1,0.100,343020.000,0.200,61894.000,0.300,4993.000,0.500,810.000,1.000,244.000,5.000,0
"05/02/07","14:00:58",439508.000,"cf",1.000,1,0.100,368554.000,0.200,64540.000,0.300,5326.000,0.500,835.000,1.000,253.000,5.000,0
"05/02/07","14:01:58",426056.000,"cf",1.000,1,0.100,357578.000,0.200,62213.000,0.300,5212.000,0.500,837.000,1.000,214.000,5.000,2.000
"05/02/07","14:02:58",405404.000,"cf",1.000,1,0.100,340439.000,0.200,58684.000,0.300,5082.000,0.500,951.000,1.000,248.000,5.000,0
"05/02/07","14:03:58",436907.000,"cf",1.000,1,0.100,368592.000,0.200,61351.000,0.300,5671.000,0.500,1029.000,1.000,264.000,5.000,0
"05/02/07","14:04:58",448276.000,"cf",1.000,1,0.100,378630.000,0.200,62090.000,0.300,6131.000,0.500,1131.000,1.000,294.000,5.000,0
"05/02/07","14:05:58",445235.000,"cf",1.000,1,0.100,375939.000,0.200,61810.000,0.300,6010.000,0.500,1152.000,1.000,324.000,5.000,0
"05/02/07","14:06:58",392145.000,"cf",1.000,1,0.100,331094.000,0.200,54387.000,0.300,5414.000,0.500,958.000,1.000,292.000,5.000,0
"05/02/07","14:07:58",424639.000,"cf",1.000,1,0.100,358018.000,0.200,59855.000,0.300,5427.000,0.500,1048.000,1.000,291.000,5.000,0
"05/02/07","14:08:58",464425.000,"cf",1.000,1,0.100,392281.000,0.200,65418.000,0.300,5541.000,0.500,924.000,1.000,261.000,5.000,0
"05/02/07","14:09:58",489944.000,"cf",1.000,1,0.100,412053.000,0.200,70801.000,0.300,5811.000,0.500,976.000,1.000,303.000,5.000,0
"05/02/07","14:10:58",429986.000,"cf",1.000,1,0.100,360012.000,0.200,62838.000,0.300,5786.000,0.500,1061.000,1.000,289.000,5.000,0
"05/02/07","14:11:58",456103.000,"cf",1.000,1,0.100,382490.000,0.200,65812.000,0.300,6251.000,0.500,1206.000,1.000,344.000,5.000,0
"05/02/07","14:12:58",471027.000,"cf",1.000,1,0.100,395458.000,0.200,67643.000,0.300,6365.000,0.500,1214.000,1.000,347.000,5.000,0
"05/02/07","14:13:58",385492.000,"cf",1.000,1,0.100,322254.000,0.200,56485.000,0.300,5463.000,0.500,1008.000,1.000,282.000,5.000,0
"05/02/07","14:14:58",397168.000,"cf",1.000,1,0.100,330988.000,0.200,58947.000,0.300,5776.000,0.500,1144.000,1.000,313.000,5.000,0
"05/02/07","14:15:58",363485.000,"cf",1.000,1,0.100,301465.000,0.200,54606.000,0.300,5938.000,0.500,1143.000,1.000,333.000,5.000,0
"05/02/07","14:16:58",343179.000,"cf",1.000,1,0.100,284370.000,0.200,51761.000,0.300,5713.000,0.500,1080.000,1.000,254.000,5.000,1.000
"05/02/07","14:17:58",418504.000,"cf",1.000,1,0.100,349356.000,0.200,61956.000,0.300,5924.000,0.500,985.000,1.000,283.000,5.000,0
"05/02/07","14:18:58",440827.000,"cf",1.000,1,0.100,368345.000,0.200,64995.000,0.300,6098.000,0.500,1115.000,1.000,274.000,5.000,0
"05/02/07","14:19:58",442422.000,"cf",1.000,1,0.100,369784.000,0.200,65709.000,0.300,5710.000,0.500,960.000,1.000,258.000,5.000,1.000
"05/02/07","14:20:58",429295.000,"cf",1.000,1,0.100,358173.000,0.200,64255.000,0.300,5683.000,0.500,940.000,1.000,244.000,5.000,0
"05/02/07","14:21:58",474161.000,"cf",1.000,1,0.100,395578.000,0.200,71234.000,0.300,6074.000,0.500,997.000,1.000,278.000,5.000,0
"05/02/07","14:22:58",408588.000,"cf",1.000,1,0.100,340050.000,0.200,61937.000,0.300,5353.000,0.500,947.000,1.000,301.000,5.000,0
"05/02/07","14:23:58",398543.000,"cf",0.999,1,0.100,331517.000,0.200,60415.000,0.300,5188.000,0.500,1101.000,1.000,322.000,5.000,0
"05/02/07","14:24:58",328286.000,"cf",1.000,1,0.100,272603.000,0.200,50072.000,0.300,4567.000,0.500,833.000,1.000,211.000,5.000,0
"05/02/07","14:25:58",301172.000,"cf",1.000,1,0.100,250095.000,0.200,46109.000,0.300,4189.000,0.500,608.000,1.000,171.000,5.000,0
"05/02/07","14:26:58",288202.000,"cf",1.000,1,0.100,238929.000,0.200,44511.000,0.300,4065.000,0.500,584.000,1.000,113.000,5.000,0
"05/02/07","14:27:58",276630.000,"cf",1.000,1,0.100,228597.000,0.200,43389.000,0.300,3996.000,0.500,534.000,1.000,114.000,5.000,0
"05/02/07","14:28:58",264195.000,"cf",1.000,1,0.100,218416.000,0.200,41316.000,0.300,3840.000,0.500,524.000,1.000,99.000,5.000,0
"05/02/07","14:29:58",251635.000,"cf",0.999,1,0.100,207524.000,0.200,39878.000,0.300,3686.000,0.500,457.000,1.000,90.000,5.000,0
"05/02/07","14:30:58",238924.000,"cf",1.000,1,0.100,197175.000,0.200,37694.000,0.300,3494.000,0.500,452.000,1.000,109.000,5.000,0
"05/02/07","14:31:58",238848.000,"cf",1.000,1,0.100,196943.000,0.200,37840.000,0.300,3531.000,0.500,459.000,1.000,75.000,5.000,0
"05/02/07","14:32:58",245809.000,"cf",1.000,1,0.100,203137.000,0.200,38415.000,0.300,3679.000,0.500,479.000,1.000,99.000,5.000,0
"05/02/07","14:33:58",240413.000,"cf",0.999,1,0.100,198724.000,0.200,37640.000,0.300,3441.000,0.500,502.000,1.000,103.000,5.000,3.000
"05/02/07","14:34:58",246219.000,"cf",1.000,1,0.100,204118.000,0.200,38025.000,0.300,3523.000,0.500,465.000,1.000,85.000,5.000,3.000
"05/02/07","14:35:58",258521.000,"cf",1.000,1,0.100,214786.000,0.200,39546.000,0.300,3627.000,0.500,478.000,1.000,84.000,5.000,0
"05/02/07","14:36:58",318801.000,"cf",1.000,1,0.100,265845.000,0.200,47847.000,0.300,4140.000,0.500,759.000,1.000,210.000,5.000,0
"05/02/07","14:37:58",314535.000,"cf",1.000,1,0.100,262174.000,0.200,47487.000,0.300,4055.000,0.500,667.000,1.000,151.000,5.000,1.000
"05/02/07","14:38:58",308499.000,"cf",1.000,1,0.100,256436.000,0.200,47236.000,0.300,3985.000,0.500,644.000,1.000,198.000,5.000,0
"05/02/07","14:39:58",324304.000,"cf",1.000,1,0.100,269710.000,0.200,49549.000,0.300,4172.000,0.500,683.000,1.000,189.000,5.000,1.000
"05/02/07","14:40:58",351039.000,"cf",1.000,1,0.100,293151.000,0.200,52570.000,0.300,4434.000,0.500,698.000,1.000,185.000,5.000,1.000
"05/02/07","14:41:58",421232.000,"cf",1.000,1,0.100,353330.000,0.200,61819.000,0.300,4912.000,0.500,916.000,1.000,254.000,5.000,1.000
"05/02/07","14:42:58",436376.000,"cf",1.000,1,0.100,365083.000,0.200,64925.000,0.300,5253.000,0.500,853.000,1.000,262.000,5.000,0
"05/02/07","14:43:58",496753.000,"cf",1.000,1,0.100,414154.000,0.200,75574.000,0.300,5822.000,0.500,944.000,1.000,259.000,5.000,0
"05/02/07","14:44:58",420224.000,"cf",1.000,1,0.100,350074.000,0.200,63940.000,0.300,5133.000,0.500,821.000,1.000,256.000,5.000,0
"05/02/07","14:45:58",452559.000,"cf",1.000,1,0.100,378382.000,0.200,67833.000,0.300,5184.000,0.500,894.000,1.000,266.000,5.000,0
"05/02/07","14:46:58",395988.000,"cf",1.000,1,0.100,330528.000,0.200,59422.000,0.300,4904.000,0.500,860.000,1.000,274.000,5.000,0
"05/02/07","14:47:58",361495.000,"cf",1.000,1,0.100,301714.000,0.200,54308.000,0.300,4389.000,0.500,836.000,1.000,247.000,5.000,1.000
"05/02/07","14:48:58",331775.000,"cf",1.000,1,0.100,277143.000,0.200,49524.000,0.300,4059.000,0.500,812.000,1.000,237.000,5.000,0
"05/02/07","14:49:58",444282.000,"cf",1.000,1,0.100,369981.000,0.200,67380.000,0.300,5716.000,0.500,956.000,1.000,249.000,5.000,0
"05/02/07","14:50:58",543221.000,"cf",1.000,1,0.100,454413.000,0.200,81323.000,0.300,6176.000,0.500,995.000,1.000,314.000,5.000,0
"05/02/07","14:51:58",448410.000,"cf",1.000,1,0.100,375113.000,0.200,66826.000,0.300,5390.000,0.500,844.000,1.000,237.000,5.000,0
"05/02/07","14:52:58",410961.000,"cf",1.000,1,0.100,343020.000,0.200,61894.000,0.300,4993.000,0.500,810.000,1.000,244.000,5.000,0
